Location: Waldport
(44.4270°N, 124.0680°W)
Time: 19:05:35
(UTC-08:00)

Daily predictions for brighter satellites

Satellite Brightness Start Highest point End
(mag) Time Altitude Azimuth Time Altitude Azimuth Time Altitude Azimuth
Cosmos 1943 Rocket 2.3 17:34:09 10° NNW 17:39:42 57° ENE 17:45:09 10° SE
CZ-2C R/B 4.3 17:37:29 10° NNE 17:41:56 40° E 17:46:18 10° SSE
Okean 3 Rocket 4.3 17:39:19 10° SSE 17:43:22 33° E 17:47:25 10° NNE
ATLAS 2AS CENTAUR R/B 3.1 17:37:01 10° NW 17:45:03 87° SW 17:52:25 10° SSE
USA 161 3.3 17:43:31 10° NNW 17:45:24 22° WNW 17:47:08 10° SW
Cosmos 2341 Rocket 4.0 17:43:19 10° N 17:49:36 74° E 17:55:53 10° SSE
SKYMED 2 4.3 17:46:37 10° NNE 17:50:32 32° E 17:54:26 10° SSE
Cosmos 1315 Rocket 4.0 17:48:22 10° SE 17:51:23 21° E 17:54:24 10° NE
Cosmos 1346 Rocket 4.4 17:50:17 10° NNE 17:52:35 15° ENE 17:54:52 10° ESE
BREEZE M DEB (TANK) 4.1 17:48:38 10° SW 17:52:58 71° SE 18:09:56 11° ENE
NOSS 2-1 (E) 3.4 17:49:47 10° SW 17:53:29 77° NW 17:57:45 10° NE
Cosmos 1908 3.8 17:49:47 10° NNW 17:53:39 63° W 17:57:26 10° S
Meteor 1-28 Rocket 3.2 17:50:05 10° NNE 17:53:55 89° W 17:57:43 10° SSW
SMAP 3.4 17:51:28 10° S 17:56:06 71° WSW 18:00:46 10° NNW
Tiangong 1 0.8 17:57:41 10° W 18:00:08 58° S 18:02:11 13° ESE
YAOGAN 1 2.5 17:56:13 10° SSE 18:00:30 66° ENE 18:04:49 10° N
SeaSat 1 4.3 17:56:53 10° S 18:01:25 36° WSW 18:05:58 10° NW
SL-24 R/B - RUBIN 2 4.2 17:57:42 10° NNW 18:01:59 36° NE 18:06:01 10° ESE
FENGYUN 3A 3.8 17:59:07 10° SE 18:04:13 49° ENE 18:09:23 10° N
KORONAS-FOTON 4.0 18:01:56 10° SSW 18:05:43 72° W 18:09:31 10° N
Cosmos 1726 2.2 18:03:31 10° N 18:07:12 79° W 18:10:51 10° S
NOSS 3-4 (A) 4.0 18:00:51 10° NNW 18:07:33 49° NE 18:14:44 10° ESE
NOSS 3-4 (C) 4.0 18:00:57 10° NNW 18:07:39 48° NE 18:14:49 10° ESE
H-2A R/B 3.9 18:06:48 10° ESE 18:09:44 22° ENE 18:12:43 10° NNE
Meteor 2-16 Rocket 4.4 18:05:26 10° N 18:11:35 81° E 18:17:42 10° S
ATLAS 5 CENTAUR R/B 4.3 18:12:21 10° NNW 18:13:30 11° N 18:14:41 10° N
Cosmos 44 Rocket 4.4 18:10:26 10° SSE 18:14:07 24° ESE 18:16:17 17° ENE
Cosmos 2181 Rocket 4.1 18:09:09 10° S 18:15:36 86° E 18:22:04 10° N
NOSS 3-3 (A) 4.3 18:09:47 10° SW 18:15:52 72° NW 18:22:38 10° NE
NOSS 3-3 (C) 4.2 18:09:53 10° SW 18:15:59 72° NW 18:22:45 10° NE
IRS-1A Rocket 4.4 18:12:50 10° SSE 18:18:22 82° WSW 18:24:02 10° NNW
Meteor 1-21 Rocket 4.5 18:13:18 10° SSW 18:19:11 80° W 18:25:10 10° N
Cosmos 2221 3.0 18:15:38 10° NNW 18:19:58 65° W 18:24:18 10° S
Cosmos 1328 4.1 18:16:24 10° SSE 18:20:13 44° E 18:24:04 10° NNE
Cosmos 1400 Rocket 2.9 18:17:26 10° SSW 18:21:29 80° WNW 18:25:37 10° N
METEOR-M 4.3 18:17:00 10° S 18:22:21 76° WSW 18:27:44 10° NNW
Cosmos 1455 4.1 18:20:09 10° NNE 18:21:01 14° NE 18:21:01 14° NE
MONITOR-E 4.1 18:27:47 10° SSE 18:30:50 87° WSW 18:33:55 10° NNW
Cosmos 1943 3.8 18:25:21 10° SW 18:30:52 55° WNW 18:36:25 10° NNE
Cosmos 1515 Rocket 4.4 18:28:12 10° NNE 18:31:54 26° ENE 18:33:09 23° E
EO 1 Del DPAF 3.3 18:30:34 11° NNE 18:34:11 57° ESE 18:37:56 10° S
SL-8 Rocket 4.1 18:28:05 10° N 18:34:17 80° W 18:40:30 10° S
Cosmos 1408 Rocket 3.6 18:30:25 10° S 18:34:36 52° E 18:38:47 10° NNE
Meteor 2-2 Rocket 4.2 18:29:03 10° N 18:34:49 69° ENE 18:40:27 10° SSE
Cosmos 2218 Rocket 4.0 18:31:21 10° N 18:37:33 89° W 18:43:42 10° S
COSMO-SKYMED 1 2.7 18:34:21 10° N 18:38:43 78° WNW 18:43:03 10° SSW
MOS 1 4.3 18:33:08 10° SSE 18:38:47 83° WSW 18:44:28 10° NNW
Cosmos 2058 3.9 18:36:44 10° SSE 18:39:49 27° ESE 18:39:49 27° ESE
ALOS 2.4 18:36:20 10° S 18:40:59 77° WSW 18:45:41 10° NNW
SPOT 3 Rocket 3.4 18:35:53 10° SSE 18:41:01 84° ENE 18:46:13 10° NNW
Landsat 4 3.8 18:41:00 10° N 18:44:45 76° WNW 18:48:28 10° SSW
Cosmos 2228 Rocket 3.5 18:41:05 10° N 18:45:24 40° ENE 18:49:42 10° SE
Cosmos 909 Rocket 4.4 18:40:58 10° NNW 18:47:45 46° NE 18:51:13 25° ESE
Cosmos 1703 3.6 18:44:32 10° SSE 18:48:17 42° E 18:48:42 40° ENE
Cosmos 2151 3.8 18:45:08 10° SSE 18:48:15 31° ESE 18:48:15 31° ESE
Cosmos 1777 Rocket 3.9 18:47:35 10° NNW 18:52:51 80° ENE 18:58:06 10° SSE
USA 81 4.4 18:47:59 10° SSE 18:52:53 40° E 18:56:04 20° NNE
Cosmos 1626 1.9 18:50:06 10° S 18:53:48 79° E 18:55:47 26° NNE
ERBS 4.5 18:51:54 10° NNW 18:53:17 16° N 18:53:17 16° N
USA 215 4.4 18:52:26 20° NE 18:55:38 29° N 19:01:05 10° WNW
Cosmos 1743 Rocket 3.6 18:56:34 10° SSE 19:00:47 49° E 19:00:56 49° E
CZ-4 R/B 4.4 18:58:56 10° SW 19:01:59 19° W 19:05:05 10° NW
Cosmos 1328 Rocket 3.4 19:01:30 10° N 19:05:54 85° E 19:10:15 10° S
GEOS 3 Rocket 3.6 19:04:33 26° SE 19:07:37 74° NE 19:13:00 10° NW
Cosmos 1241 Rocket 4.3 19:02:42 10° NNW 19:08:55 67° NE 19:12:09 29° SE
ERS-2 3.0 19:07:11 10° S 19:10:47 51° W 19:14:24 10° NNW
Cosmos 2098 Rocket 3.7 19:11:59 10° N 19:17:01 82° W 19:23:22 10° S
Cosmos 1656 Rocket 4.2 19:12:41 10° NNW 19:18:03 57° WSW 19:23:26 10° S
Cosmos 371 Rocket 4.2 19:17:36 10° S 19:20:35 34° SSE 19:20:35 34° SSE
Cosmos 1821 Rocket 3.9 19:16:16 10° N 19:22:23 64° E 19:28:33 10° SSE
Cosmos 1535 Rocket 4.4 19:16:46 10° N 19:22:49 55° ENE 19:24:18 45° ESE
TIMED 4.5 19:19:00 10° NNW 19:22:59 71° N 19:22:59 71° N
Cosmos 44 3.3 19:24:50 10° SW 19:29:06 61° NW 19:29:34 57° NNW
Cosmos 1346 Rocket 3.9 19:25:30 10° NNW 19:29:14 43° W 19:32:55 10° SSW
Tiangong 1 4.3 19:32:02 10° W 19:32:10 11° W 19:32:10 11° W
Nadezhda 3 Rocket 4.0 19:28:15 10° S 19:34:35 84° W 19:41:00 10° N
Meteor 2-15 Rocket 4.3 19:29:54 10° S 19:35:57 65° E 19:35:57 65° E
Envisat 4.1 19:46:20 33° N 19:46:20 33° N 19:49:07 10° N
Cosmos 1151 Rocket 3.9 19:42:16 10° NNW 19:45:39 45° NW 19:45:39 45° NW
Cosmos 44 Rocket 4.1 19:50:50 10° SW 19:55:03 46° WNW 19:55:03 46° WNW
COSMOS 2406 3.3 19:52:15 10° SSW 19:57:58 71° WNW 19:58:03 71° NW
Thor Agena Rocket 3.9 20:00:18 63° WNW 20:00:18 63° WNW 20:05:27 10° SSW
ATLAS 5 CENTAUR R/B 4.5 19:58:13 10° N 19:58:56 11° N 19:58:56 11° N
Cosmos 1934 Rocket 4.0 19:57:25 10° N 20:03:24 79° NNW 20:03:24 79° NNW
USA 215 4.5 20:39:46 32° NNW 20:39:46 32° NNW 20:43:38 10° NW
